TimeCEST,TemperatureF,Dew PointF,Humidity,Sea Level PressureIn,VisibilityMPH,Wind Direction,Wind SpeedMPH,Gust SpeedMPH,PrecipitationIn,Events,Conditions,WindDirDegrees,DateUTC
12:00 AM,55.4,46.4,72,30.01,-9999.0,East,4.6,-,N/A,,Clear,100,2013-04-22 22:00:00
12:30 AM,53.6,46.4,77,30.01,-9999.0,ESE,5.8,-,N/A,,Clear,120,2013-04-22 22:30:00
1:00 AM,53.6,48.2,82,30.04,-9999.0,SE,8.1,-,N/A,,Clear,130,2013-04-22 23:00:00
1:30 AM,53.6,48.2,82,30.04,-9999.0,East,4.6,-,N/A,,Clear,90,2013-04-22 23:30:00
2:00 AM,51.8,48.2,88,30.04,-9999.0,East,8.1,-,N/A,,Clear,100,2013-04-23 00:00:00
2:30 AM,50.0,46.4,87,30.04,-9999.0,East,6.9,-,N/A,,Clear,100,2013-04-23 00:30:00
3:00 AM,50.0,48.2,94,30.04,-9999.0,East,4.6,-,N/A,,Clear,100,2013-04-23 01:00:00
3:30 AM,48.2,46.4,93,30.04,-9999.0,East,6.9,-,N/A,,Clear,100,2013-04-23 01:30:00
4:00 AM,48.2,44.6,87,30.04,-9999.0,East,4.6,-,N/A,,Clear,80,2013-04-23 02:00:00
4:30 AM,48.2,44.6,87,30.04,-9999.0,Variable,2.3,-,N/A,,Clear,0,2013-04-23 02:30:00
5:00 AM,46.4,44.6,93,30.04,-9999.0,Variable,3.5,-,N/A,,Clear,0,2013-04-23 03:00:00
5:30 AM,48.2,46.4,93,30.06,-9999.0,Variable,3.5,-,N/A,,Clear,0,2013-04-23 03:30:00
6:00 AM,46.4,44.6,93,30.06,-9999.0,Variable,3.5,-,N/A,,Clear,0,2013-04-23 04:00:00
6:30 AM,50.0,48.2,94,30.06,-9999.0,Variable,3.5,-,N/A,,Clear,0,2013-04-23 04:30:00
7:00 AM,53.6,51.8,94,30.09,-9999.0,Variable,3.5,-,N/A,,Clear,0,2013-04-23 05:00:00
7:30 AM,55.4,51.8,88,30.09,-9999.0,Variable,2.3,-,N/A,,Clear,0,2013-04-23 05:30:00
8:00 AM,57.2,51.8,82,30.09,-9999.0,Variable,3.5,-,N/A,,Clear,0,2013-04-23 06:00:00
8:30 AM,57.2,51.8,82,30.12,-9999.0,South,5.8,-,N/A,,Clear,190,2013-04-23 06:30:00
9:00 AM,57.2,51.8,82,30.12,-9999.0,Variable,2.3,-,N/A,,Clear,0,2013-04-23 07:00:00
9:30 AM,59.0,51.8,77,30.12,-9999.0,Variable,2.3,-,N/A,,Clear,0,2013-04-23 07:30:00
10:00 AM,60.8,53.6,77,30.12,-9999.0,South,5.8,-,N/A,,Clear,170,2013-04-23 08:00:00
10:30 AM,62.6,53.6,72,30.12,-9999.0,SSE,5.8,-,N/A,,Clear,150,2013-04-23 08:30:00
11:00 AM,62.6,53.6,72,30.15,-9999.0,South,8.1,-,N/A,,Clear,180,2013-04-23 09:00:00
11:30 AM,66.2,51.8,60,30.15,-9999.0,SSE,9.2,-,N/A,,Clear,160,2013-04-23 09:30:00
12:00 PM,68.0,48.2,49,30.15,6.2,South,10.4,-,N/A,,Partly Cloudy,180,2013-04-23 10:00:00
12:30 PM,69.8,50.0,49,30.15,6.2,South,12.7,-,N/A,,Partly Cloudy,170,2013-04-23 10:30:00
1:00 PM,68.0,46.4,46,30.15,6.2,South,11.5,-,N/A,,Partly Cloudy,190,2013-04-23 11:00:00
1:30 PM,69.8,50.0,49,30.15,-9999.0,SSW,11.5,-,N/A,,Clear,200,2013-04-23 11:30:00
2:00 PM,69.8,48.2,46,30.15,6.2,SSW,9.2,-,N/A,,Partly Cloudy,200,2013-04-23 12:00:00
2:30 PM,71.6,48.2,43,30.12,6.2,SSW,10.4,-,N/A,,Scattered Clouds,210,2013-04-23 12:30:00
3:00 PM,69.8,46.4,43,30.15,-9999.0,SSW,11.5,-,N/A,,Clear,210,2013-04-23 13:00:00
3:30 PM,69.8,46.4,43,30.15,-9999.0,SW,10.4,-,N/A,,Clear,230,2013-04-23 13:30:00
4:00 PM,71.6,48.2,43,30.12,-9999.0,SW,9.2,-,N/A,,Clear,220,2013-04-23 14:00:00
4:30 PM,71.6,48.2,43,30.12,-9999.0,WSW,10.4,-,N/A,,Clear,250,2013-04-23 14:30:00
5:00 PM,71.6,50.0,46,30.12,-9999.0,SSW,11.5,-,N/A,,Clear,200,2013-04-23 15:00:00
5:30 PM,71.6,46.4,41,30.12,-9999.0,SW,12.7,-,N/A,,Clear,220,2013-04-23 15:30:00
6:00 PM,69.8,48.2,46,30.12,-9999.0,SSW,12.7,-,N/A,,Clear,210,2013-04-23 16:00:00
6:30 PM,69.8,48.2,46,30.12,-9999.0,SSW,12.7,-,N/A,,Clear,210,2013-04-23 16:30:00
7:00 PM,68.0,50.0,52,30.12,-9999.0,SW,11.5,-,N/A,,Clear,230,2013-04-23 17:00:00
7:30 PM,66.2,50.0,56,30.15,-9999.0,SW,9.2,-,N/A,,Clear,220,2013-04-23 17:30:00
8:00 PM,64.4,48.2,56,30.15,-9999.0,SW,9.2,-,N/A,,Clear,220,2013-04-23 18:00:00
8:30 PM,64.4,48.2,56,30.18,-9999.0,SW,9.2,-,N/A,,Clear,220,2013-04-23 18:30:00
9:00 PM,62.6,48.2,59,30.18,-9999.0,WSW,6.9,-,N/A,,Clear,240,2013-04-23 19:00:00
9:30 PM,60.8,46.4,59,30.18,-9999.0,SW,9.2,-,N/A,,Clear,230,2013-04-23 19:30:00
10:00 PM,59.0,46.4,63,30.21,-9999.0,SW,6.9,-,N/A,,Clear,230,2013-04-23 20:00:00
10:30 PM,57.2,46.4,67,30.21,-9999.0,WSW,6.9,-,N/A,,Clear,240,2013-04-23 20:30:00
11:00 PM,57.2,44.6,63,30.21,-9999.0,SW,6.9,-,N/A,,Clear,230,2013-04-23 21:00:00
11:30 PM,53.6,44.6,72,30.24,-9999.0,Variable,3.5,-,N/A,,Clear,0,2013-04-23 21:30:00